GW1714 Weather Reports


Display with metric or nautical units.
time (UTC)temp
F
wind
direction
speed
MPH
gust
MPH
rain 1hr
in
rain 24hr
in
rain mn
in
humidity
%
barometer
mb
20260507214828 64 11 2.0 2.0 0.00 0.15 0.15 74 1031.2
20260507214326 66 26 1.0 3.0 0.00 0.15 0.15 71 1031.3
20260507213820 66 5 0.0 3.0 0.00 0.15 0.15 74 1031.4
20260507213317 64 24 2.0 5.0 0.00 0.15 0.15 74 1031.4
20260507212814 65 0 2.0 2.0 0.00 0.15 0.15 75 1031.3
20260507212310 64 42 3.0 6.0 0.00 0.15 0.15 76 1031.2
20260507211806 63 356 2.0 4.0 0.00 0.15 0.15 78 1031.2
20260507211303 62 14 1.0 3.0 0.00 0.15 0.15 84 1031.1
20260507210800 61 345 0.0 0.0 0.00 0.15 0.15 84 1031.1
20260507210257 60 26 2.0 3.0 0.00 0.15 0.15 83 1031.2
20260507205753 60 346 0.0 2.0 0.00 0.15 0.15 86 1031.1
20260507205251 60 5 1.0 2.0 0.00 0.15 0.15 85 1031.2
20260507204746 60 353 1.0 1.0 0.00 0.15 0.15 85 1031.2
20260507204245 60 0 0.0 0.0 0.00 0.15 0.15 84 1031.1
20260507203742 60 0 0.0 0.0 0.00 0.15 0.15 82 1031.0
20260507203239 61 346 1.0 1.0 0.00 0.15 0.15 79 1030.9
20260507202735 62 76 0.0 5.0 0.00 0.15 0.15 82 1031.0
20260507202232 62 337 2.0 2.0 0.00 0.15 0.15 82 1030.9
20260507201727 62 337 0.0 1.0 0.00 0.15 0.15 84 1031.1
20260507201224 60 352 0.0 0.0 0.00 0.15 0.15 82 1031.0
20260507200720 59 23 0.0 1.0 0.00 0.15 0.15 85 1031.2
20260507200216 59 0 0.0 0.0 0.00 0.15 0.15 87 1031.2
20260507195713 58 180 0.0 0.0 0.00 0.15 0.15 86 1031.2
20260507195210 59 180 0.0 0.0 0.00 0.15 0.15 87 1031.4
20260507194707 60 180 0.0 0.0 0.00 0.15 0.15 88 1031.4
20260507194203 60 180 0.0 0.0 0.00 0.15 0.15 88 1031.4
20260507193700 60 180 0.0 0.0 0.00 0.15 0.15 87 1031.6
20260507193157 60 0 0.0 2.0 0.00 0.15 0.15 87 1031.7
20260507192652 59 180 0.0 0.0 0.00 0.15 0.15 88 1031.6
20260507192150 59 180 0.0 1.0 0.00 0.15 0.15 88 1031.4
20260507191645 58 352 0.0 0.0 0.00 0.15 0.15 89 1031.5
20260507191142 58 8 0.0 0.0 0.00 0.15 0.15 92 1031.4
20260507190639 59 0 0.0 1.0 0.00 0.15 0.15 95 1031.3
20260507190138 57 346 0.0 2.0 0.00 0.15 0.15 96 1031.5
20260507185636 57 194 0.0 1.0 0.00 0.15 0.15 97 1031.6
20260507185132 56 172 0.0 2.0 0.00 0.15 0.15 99 1031.3
20260507184630 55 180 0.0 2.0 0.00 0.15 0.15 99 1031.6
20260507184128 56 180 0.0 2.0 0.00 0.15 0.15 99 1031.4
20260507183624 56 165 0.0 1.0 0.00 0.15 0.15 99 1031.6
20260507183121 55 165 0.0 0.0 0.00 0.15 0.15 99 1031.7
20260507182618 56 165 1.0 2.0 0.00 0.15 0.15 99 1031.3
20260507182114 55 23 1.0 2.0 0.00 0.15 0.15 99 1031.8
20260507181611 54 157 0.0 0.0 0.00 0.15 0.15 99 1031.9
20260507181107 55 160 1.0 1.0 0.00 0.15 0.15 99 1031.8
20260507180603 54 15 0.0 1.0 0.00 0.15 0.15 99 1031.8
20260507180101 53 151 0.0 1.0 0.00 0.15 0.15 99 1031.8
20260507175556 53 160 0.0 1.0 0.00 0.15 0.15 99 1031.9
20260507175054 54 180 0.0 0.0 0.00 0.15 0.15 99 1032.1
20260507174551 54 0 0.0 0.0 0.00 0.15 0.15 99 1032.1
20260507174049 54 160 0.0 0.0 0.00 0.15 0.15 99 1032.3
20260507173545 53 160 0.0 0.0 0.00 0.15 0.15 99 1032.2
20260507173043 53 160 0.0 0.0 0.00 0.15 0.15 99 1032.4
20260507172538 53 160 0.0 1.0 0.00 0.15 0.15 99 1032.4
20260507172036 52 188 0.0 0.0 0.00 0.15 0.15 99 1032.3
20260507171531 53 180 0.0 1.0 0.00 0.15 0.15 99 1032.5
20260507171028 53 165 0.0 2.0 0.00 0.15 0.15 99 1032.4
20260507170525 53 188 0.0 1.0 0.00 0.15 0.15 99 1032.1
20260507170022 53 172 0.0 0.0 0.00 0.15 0.15 99 1032.3
20260507165518 53 173 0.0 2.0 0.00 0.15 0.15 99 1032.4
20260507165015 53 154 0.0 2.0 0.00 0.15 0.15 99 1032.2
20260507164511 53 173 0.0 0.0 0.00 0.15 0.15 99 1032.1
20260507164008 53 194 0.0 1.0 0.00 0.15 0.15 99 1031.9
20260507163505 52 194 0.0 2.0 0.00 0.15 0.15 99 1032.1
20260507163003 53 180 0.0 2.0 0.00 0.15 0.15 99 1032.2
20260507162457 53 162 0.0 1.0 0.00 0.15 0.15 99 1031.9
20260507161954 53 148 1.0 2.0 0.00 0.15 0.15 99 1032.1
20260507161451 53 180 0.0 0.0 0.00 0.15 0.15 99 1031.8
20260507160948 53 188 0.0 2.0 0.00 0.15 0.15 99 1031.9
20260507160444 53 172 0.0 2.0 0.00 0.15 0.15 99 1031.9
20260507155939 53 148 2.0 3.0 0.00 0.15 0.15 99 1031.5
20260507155436 53 157 1.0 1.0 0.00 0.15 0.15 99 1031.8
20260507154933 53 157 1.0 2.0 0.00 0.15 0.15 99 1031.8
20260507154429 53 166 3.0 3.0 0.00 0.15 0.15 99 1031.6
20260507153927 53 156 2.0 2.0 0.00 0.15 0.15 99 1031.5
20260507153423 53 154 2.0 3.0 0.00 0.15 0.15 99 1031.8
20260507152919 53 160 0.0 2.0 0.02 0.15 0.15 99 1031.7
20260507152416 53 166 3.0 3.0 0.02 0.15 0.15 99 1031.6
20260507151912 54 175 2.0 3.0 0.00 0.15 0.15 99 1031.5
20260507151409 55 144 2.0 2.0 0.00 0.15 0.15 99 1031.5
20260507150906 54 180 0.0 1.0 0.00 0.15 0.15 99 1031.5
20260507150402 54 180 1.0 2.0 0.00 0.15 0.15 99 1031.3
20260507145859 54 174 3.0 3.0 0.02 0.15 0.15 99 1031.3
20260507145355 54 175 2.0 2.0 0.02 0.14 0.14 99 1031.5
20260507144852 54 180 0.0 2.0 0.00 0.14 0.14 99 1031.5
20260507144349 54 160 1.0 2.0 0.00 0.14 0.14 99 1031.4
20260507143846 54 180 0.0 2.0 0.00 0.14 0.14 99 1031.5
20260507143343 54 180 1.0 1.0 0.02 0.14 0.14 99 1031.2
20260507142839 54 165 0.0 1.0 0.02 0.14 0.14 99 1031.1
20260507142336 54 160 1.0 2.0 0.00 0.13 0.13 99 1031.1
20260507141832 54 169 1.0 2.0 0.00 0.13 0.13 99 1030.8
20260507141329 54 157 0.0 0.0 0.00 0.13 0.13 99 1030.8
20260507140825 54 165 0.0 2.0 0.00 0.13 0.13 99 1030.8
20260507140322 54 180 0.0 2.0 0.00 0.13 0.13 99 1030.9
20260507135820 54 166 0.0 2.0 0.02 0.13 0.13 99 1031.0
20260507135317 55 157 0.0 1.0 0.00 0.13 0.13 99 1031.0
20260507134814 54 165 0.0 2.0 0.00 0.13 0.13 99 1031.0
20260507134310 54 162 0.0 2.0 0.02 0.13 0.13 99 1030.7
20260507133806 54 172 0.0 1.0 0.00 0.13 0.13 99 1030.5
20260507133302 54 166 0.0 1.0 0.02 0.13 0.13 99 1030.9
20260507132800 54 165 0.0 1.0 0.02 0.13 0.13 99 1030.8
20260507132256 54 157 0.0 2.0 0.02 0.12 0.12 99 1030.9
20260507131754 54 151 1.0 1.0 0.05 0.12 0.12 99 1030.7
20260507131251 54 165 0.0 1.0 0.02 0.12 0.12 99 1030.9
20260507130747 54 145 0.0 2.0 0.02 0.11 0.11 99 1030.6
20260507130245 54 180 0.0 1.0 0.02 0.11 0.11 99 1030.9
20260507125743 54 162 0.0 1.0 0.00 0.11 0.11 99 1031.2
20260507125241 55 172 0.0 2.0 0.00 0.11 0.11 99 1030.9
20260507124737 54 165 0.0 1.0 0.00 0.11 0.11 99 1030.9
20260507124234 55 172 0.0 1.0 0.00 0.11 0.11 99 1030.8
20260507123732 54 172 0.0 1.0 0.00 0.11 0.11 99 1030.9
20260507123230 54 165 0.0 2.0 0.00 0.11 0.11 99 1031.0
20260507122725 54 160 1.0 1.0 0.00 0.11 0.11 99 1030.8
20260507122221 54 165 0.0 0.0 0.00 0.11 0.11 99 1030.6
20260507121717 54 165 0.0 1.0 0.00 0.11 0.11 99 1030.7
20260507121213 54 165 0.0 0.0 0.02 0.11 0.11 99 1030.7
20260507120709 54 160 0.0 2.0 0.00 0.11 0.11 99 1031.0
20260507120206 54 157 0.0 2.0 0.00 0.11 0.11 99 1030.6
20260507115702 54 157 0.0 0.0 0.00 0.11 0.11 99 1030.7
20260507115158 54 154 2.0 2.0 0.00 0.11 0.11 99 1030.6
20260507114654 54 180 0.0 1.0 0.00 0.11 0.11 99 1030.6
20260507114152 54 166 1.0 3.0 0.00 0.11 0.11 99 1030.6
20260507113649 54 172 0.0 2.0 0.02 0.11 0.11 99 1030.2
20260507113145 54 165 2.0 2.0 0.02 0.11 0.11 99 1029.6
20260507112643 54 160 0.0 2.0 0.00 0.10 0.10 99 1030.0
20260507112140 55 180 0.0 1.0 0.00 0.10 0.10 99 1030.1
20260507111637 55 173 0.0 0.0 0.00 0.10 0.10 99 1029.8
20260507111133 55 165 0.0 2.0 0.00 0.10 0.10 99 1030.1
20260507110630 55 157 0.0 1.0 0.00 0.10 0.10 99 1029.7
20260507110127 55 151 1.0 2.0 0.02 0.10 0.10 99 1030.2
20260507105624 55 172 0.0 1.0 0.02 0.10 0.10 99 1030.3
20260507105119 55 165 0.0 1.0 0.00 0.10 0.10 99 1030.1
20260507104617 55 168 1.0 2.0 0.00 0.10 0.10 99 1030.3
20260507104113 55 172 0.0 0.0 0.00 0.10 0.10 99 1030.0
20260507103609 55 172 0.0 0.0 0.00 0.10 0.10 99 1030.1
20260507103106 55 172 0.0 0.0 0.00 0.10 0.10 99 1030.2
20260507102603 55 172 0.0 0.0 0.02 0.10 0.10 99 1030.3
20260507102059 55 172 0.0 0.0 0.07 0.10 0.10 99 1030.2
20260507101555 55 172 0.0 0.0 0.05 0.09 0.09 99 1030.5
20260507101051 55 172 0.0 0.0 0.02 0.09 0.09 99 1030.5
20260507100548 55 165 0.0 0.0 0.00 0.08 0.08 99 1030.2
20260507100047 55 157 0.0 1.0 0.00 0.08 0.08 99 1030.1
20260507095544 55 172 0.0 0.0 0.00 0.08 0.08 99 1029.8
20260507095041 55 172 0.0 0.0 0.00 0.08 0.08 99 1030.1
20260507094537 55 180 0.0 0.0 0.00 0.08 0.08 99 1030.0
20260507094034 55 173 0.0 2.0 0.02 0.08 0.08 99 1029.5
20260507093531 55 180 0.0 1.0 0.02 0.08 0.08 99 1029.6
20260507093030 55 168 0.0 1.0 0.05 0.08 0.08 99 1029.7
20260507092526 55 173 0.0 0.0 0.17 0.08 0.08 99 1029.7
20260507092023 55 173 0.0 0.0 0.21 0.07 0.07 99 1029.6
20260507091520 55 180 0.0 1.0 0.17 0.05 0.05 99 1030.0
20260507091015 55 154 2.0 2.0 0.09 0.03 0.03 99 1030.1
20260507090512 56 195 1.0 2.0 0.00 0.02 0.02 99 1030.3
20260507090009 56 165 0.0 2.0 0.00 0.02 0.02 99 1030.4
20260507085506 56 172 0.0 1.0 0.00 0.02 0.02 99 1029.7
20260507085002 56 173 0.0 2.0 0.00 0.02 0.02 99 1029.7
20260507084459 56 180 0.0 1.0 0.02 0.02 0.02 99 1029.7
20260507083956 56 172 0.0 0.0 0.02 0.02 0.02 99 1029.4
20260507083452 56 15 0.0 0.0 0.00 0.01 0.01 99 1029.7
20260507082949 56 173 0.0 0.0 0.00 0.01 0.01 99 1029.7
20260507082445 56 173 0.0 1.0 0.00 0.01 0.01 99 1029.6
20260507081941 56 180 0.0 0.0 0.00 0.01 0.01 99 1029.6
20260507081438 56 180 0.0 0.0 0.00 0.01 0.01 99 1029.8
20260507080935 56 180 0.0 1.0 0.00 0.01 0.01 99 1030.2
20260507080431 56 180 0.0 1.0 0.00 0.01 0.01 99 1029.7
20260507075926 56 140 0.0 0.0 0.00 0.01 0.01 99 1029.6
20260507075423 56 165 0.0 0.0 0.00 0.01 0.01 99 1029.5
20260507074920 56 157 0.0 1.0 0.00 0.01 0.01 99 1030.0
20260507074416 56 173 0.0 1.0 0.00 0.01 0.01 99 1030.1
20260507073914 56 352 0.0 0.0 0.02 0.01 0.01 99 1030.0
20260507073410 56 180 0.0 0.0 0.02 0.01 0.01 99 1030.0
20260507072908 56 180 0.0 0.0 0.00 0.01 0.01 99 1029.8
20260507072405 56 158 2.0 2.0 0.00 0.01 0.01 99 1029.1
20260507071902 57 160 0.0 0.0 0.00 0.01 0.01 99 1029.7
20260507071359 57 173 0.0 1.0 0.00 0.01 0.01 99 1030.2
20260507070855 57 157 0.0 1.0 0.02 0.01 0.01 99 1030.3
20260507070353 57 168 0.0 0.0 0.00 0.00 0.00 99 1030.3
20260507065850 57 168 0.0 0.0 0.00 0.00 0.00 99 1030.6
20260507065346 57 190 0.0 2.0 0.00 0.00 0.00 99 1030.5
20260507064843 58 206 1.0 2.0 0.00 0.00 0.00 99 1030.5
20260507064342 58 198 0.0 2.0 0.00 0.00 0.00 99 1030.3
20260507063839 59 164 2.0 2.0 0.00 0.00 0.00 99 1029.8
20260507063336 59 186 0.0 2.0 0.00 0.00 0.00 99 1029.8
20260507062832 59 194 0.0 3.0 0.00 0.00 0.00 99 1029.4
20260507062329 60 188 0.0 3.0 0.00 0.00 0.00 99 1029.6
20260507061828 61 201 0.0 2.0 0.00 0.00 0.00 99 1029.6
20260507061325 61 159 2.0 2.0 0.00 0.00 0.00 99 1029.2
20260507060824 61 180 0.0 0.0 0.00 0.00 0.00 99 1029.1
20260507060320 61 188 0.0 0.0 0.00 0.00 0.00 99 1029.3
20260507055817 61 188 0.0 0.0 0.00 0.00 0.00 99 1029.5
20260507055312 61 180 0.0 2.0 0.00 0.00 0.00 99 1030.0
20260507054809 62 169 0.0 3.0 0.00 0.00 0.00 99 1029.6
20260507054305 62 203 1.0 2.0 0.00 0.00 0.00 99 1029.8
20260507053802 62 195 0.0 1.0 0.00 0.00 0.00 99 1029.8
20260507053300 62 180 0.0 0.0 0.00 0.00 0.00 99 1030.1
20260507052759 62 187 0.0 2.0 0.00 0.00 0.00 99 1030.1
20260507052255 62 165 0.0 0.0 0.00 0.00 0.00 99 1029.8
20260507051753 62 165 0.0 0.0 0.02 0.00 0.00 99 1030.0
20260507051249 62 165 0.0 0.0 0.02 0.00 0.00 99 1029.8
20260507050747 62 165 0.0 2.0 0.00 0.00 0.00 99 1030.1
20260507050243 62 180 0.0 2.0 0.00 0.00 0.00 99 1030.2
20260507045740 62 0 0.0 0.0 0.00 0.00 0.00 99 1030.0
20260507045236 62 0 0.0 1.0 0.00 0.00 0.00 99 1029.4
20260507044734 62 353 0.0 2.0 0.00 0.00 0.00 99 1029.4
20260507044230 62 0 1.0 2.0 0.00 0.00 0.00 99 1030.0
20260507043726 62 345 0.0 3.0 0.00 0.00 0.00 99 1030.0
20260507043223 62 0 0.0 0.0 0.00 0.00 0.00 99 1030.3
20260507042719 62 0 0.0 2.0 0.00 0.00 0.00 99 1030.1
20260507042214 62 140 0.0 4.0 0.00 0.00 0.00 99 1029.8
20260507041712 62 165 0.0 2.0 0.00 0.00 0.00 99 1030.4
20260507041208 62 172 0.0 0.0 0.00 0.00 0.00 99 1030.4
20260507040706 62 8 0.0 0.0 0.00 0.00 0.00 99 1030.3
20260507040201 62 8 0.0 0.0 0.00 0.00 0.00 99 1030.1
20260507035657 62 23 2.0 2.0 0.00 0.72 0.72 99 1030.2
20260507035153 62 173 0.0 0.0 0.00 0.72 0.72 99 1030.1
20260507034650 62 173 0.0 0.0 0.02 0.72 0.72 99 1030.2
20260507034148 62 180 0.0 2.0 0.00 0.72 0.72 99 1030.8
20260507033646 62 194 0.0 2.0 0.00 0.72 0.72 99 1030.6
20260507033143 62 324 0.0 2.0 0.00 0.72 0.72 99 1030.3
20260507032641 62 352 2.0 2.0 0.00 0.72 0.72 99 1030.5
20260507032136 62 328 2.0 2.0 0.00 0.72 0.72 99 1030.4
20260507031634 62 328 2.0 3.0 0.00 0.72 0.72 99 1030.7
20260507031130 62 7 0.0 0.0 0.00 0.72 0.72 99 1030.9
20260507030627 62 7 1.0 2.0 0.00 0.72 0.72 99 1030.9
20260507030125 62 148 2.0 3.0 0.02 0.72 0.72 99 1031.2
20260507025622 62 26 0.0 2.0 0.05 0.72 0.72 99 1031.2
20260507025118 62 330 2.0 5.0 0.02 0.72 0.72 99 1031.1
20260507024616 62 66 1.0 2.0 0.02 0.71 0.71 99 1031.5
20260507024113 62 90 0.0 2.0 0.05 0.71 0.71 99 1030.9
20260507023609 62 26 1.0 3.0 0.02 0.71 0.71 99 1030.9
20260507023107 62 345 0.0 1.0 0.00 0.70 0.70 99 1031.1
20260507022603 62 33 0.0 2.0 0.00 0.70 0.70 99 1031.0
20260507022058 62 345 0.0 2.0 0.00 0.70 0.70 99 1030.7
20260507021555 62 0 2.0 2.0 0.00 0.70 0.70 99 1030.9
20260507021051 62 328 2.0 2.0 0.00 0.70 0.70 99 1030.7
20260507020549 62 28 0.0 3.0 0.00 0.70 0.70 98 1030.9
20260507020045 62 341 0.0 2.0 0.00 0.70 0.70 99 1030.9
20260507015544 62 352 0.0 0.0 0.00 0.70 0.70 98 1030.5
20260507015041 62 90 0.0 0.0 0.00 0.70 0.70 98 1030.8
20260507014537 62 81 2.0 3.0 0.00 0.70 0.70 98 1030.8
20260507014033 62 175 2.0 3.0 0.00 0.70 0.70 98 1030.7
20260507013530 62 19 6.0 6.0 0.00 0.70 0.70 98 1030.5
20260507013027 62 15 0.0 2.0 0.00 0.70 0.70 98 1030.2
20260507012524 62 0 0.0 2.0 0.00 0.70 0.70 98 1030.2
20260507012021 62 352 4.0 5.0 0.00 0.70 0.70 98 1029.8
20260507011518 62 350 3.0 6.0 0.02 0.70 0.70 98 1030.4
20260507011014 62 358 4.0 5.0 0.05 0.70 0.70 98 1030.3
20260507010509 63 328 2.0 2.0 0.07 0.70 0.70 98 1030.0
20260507010006 63 173 1.0 5.0 0.09 0.70 0.70 98 1029.7
20260507005503 63 339 4.0 5.0 0.12 0.69 0.69 98 1030.8
20260507004959 63 187 1.0 3.0 0.12 0.68 0.68 98 1032.2
20260507004456 63 270 0.0 1.0 0.07 0.66 0.66 98 1031.6
20260507003954 63 341 2.0 3.0 0.07 0.65 0.65 98 1031.2
20260507003449 63 0 2.0 3.0 0.17 0.65 0.65 98 1031.3
20260507002944 63 0 2.0 3.0 0.21 0.64 0.64 97 1031.4
20260507002441 63 342 0.0 3.0 0.21 0.62 0.62 97 1031.4
20260507001938 63 12 4.0 7.0 0.19 0.59 0.59 97 1031.5
20260507001434 63 39 3.0 5.0 0.19 0.58 0.58 97 1031.3
20260507000932 63 14 0.0 3.0 0.17 0.56 0.56 97 1030.9
20260507000428 63 165 0.0 1.0 0.14 0.54 0.54 97 1030.2
20260506235923 63 33 0.0 2.0 0.14 0.53 0.53 97 1029.8
20260506235421 63 352 0.0 0.0 0.07 0.52 0.52 97 1030.0
20260506234916 64 349 2.0 2.0 0.09 0.51 0.51 97 1030.2
20260506234414 64 352 2.0 4.0 0.14 0.50 0.50 96 1030.2
20260506233912 64 11 2.0 3.0 0.17 0.49 0.49 96 1030.5
20260506233407 64 9 2.0 2.0 0.17 0.48 0.48 95 1030.6
20260506232904 64 160 0.0 3.0 0.12 0.46 0.46 95 1030.4
20260506232400 64 352 0.0 4.0 0.05 0.45 0.45 95 1030.5
20260506231856 64 49 0.0 5.0 0.02 0.44 0.44 96 1030.2
20260506231354 64 352 0.0 2.0 0.00 0.43 0.43 96 1029.7
20260506230851 64 337 0.0 0.0 0.02 0.43 0.43 96 1029.3
20260506230348 64 337 0.0 0.0 0.07 0.43 0.43 95 1029.5
20260506225844 64 345 2.0 3.0 0.07 0.43 0.43 95 1029.6
20260506225342 65 8 2.0 3.0 0.05 0.42 0.42 94 1030.2
20260506224839 65 331 1.0 4.0 0.05 0.42 0.42 93 1029.6
20260506224336 65 31 3.0 3.0 0.02 0.41 0.41 94 1029.7
20260506223832 65 339 2.0 3.0 0.00 0.41 0.41 94 1029.6
20260506223327 64 356 2.0 4.0 0.00 0.41 0.41 95 1029.7
20260506222825 65 345 3.0 6.0 0.00 0.41 0.41 95 1030.0
20260506222320 64 333 3.0 6.0 0.02 0.41 0.41 96 1030.0
20260506221819 64 346 5.0 7.0 0.02 0.41 0.41 96 1029.7
20260506221316 65 358 3.0 5.0 0.05 0.41 0.41 96 1029.8
20260506220813 65 341 2.0 4.0 0.05 0.40 0.40 96 1030.0
20260506220308 66 352 2.0 2.0 0.07 0.40 0.40 96 1029.5
20260506215805 66 0 3.0 3.0 0.07 0.39 0.39 95 1029.6
20260506215301 66 15 0.0 2.0 0.02 0.39 0.39 95 1030.0